Regional Weather Roundup
Issued by NWS New Orleans/Baton Rouge, LA

Home | Current Version | Previous Version | Graphics & Text | Print | Product List | Glossary On
Versions: 1 2 3 4 5 6 7 8 9 10 11 12 13 14 15 16 17 18 19 20 21 22 23 24 25 26 27 28 29 30 31 32 33 34 35 36 37 38 39 40 41 42 43 44 45 46 47 48 49 50
742
ASUS44 KLIX 282001
RWRLIX
NEW ORLEANS REGIONAL WEATHER ROUNDUP
NATIONAL WEATHER SERVICE NEW ORLEANS LA
200 PM CST WED JAN 28 2015

NOTE: "FAIR" INDICATES FEW OR NO CLOUDS BELOW 12,000 FEET WITH NO
      SIGNIFICANT WEATHER AND/OR OBSTRUCTIONS TO VISIBILITY.
      SKY/WX - SKY CONDITION AND SIGNIFICANT WEATHER.
      TMP - AIR TEMPERATURE.     DP    - DEWPOINT TEMPERATURE.
      RH  - RELATIVE HUMIDITY.   PRES  - PRESSURE.
      HI  - HEAT INDEX.          WCI   - WIND CHILL INDEX.

*  THESE STATIONS ARE NOT NWS OR FAA STATIONS AND ARE NOT UNDER
   NWS QUALITY CONTROL.

LAZ038-040-048-061>063-065>067-069-282100-
SOUTHEAST LOUISIANA

CITY           SKY/WX    TMP DP  RH WIND       PRES   REMARKS
N.O. AUDUBON   NOT AVBL
N.O. INTL ARPT MOSUNNY   67  38  34 VRB7      30.24F
N.O. LAKEFRONT SUNNY     63  40  42 E8        30.26F
N.O. DOWNTOWN* NOT AVBL
SLIDELL        SUNNY     65  41  41 S9        30.23F
BATON ROUGE    SUNNY     70  35  27 SE8       30.21F
BOOTHVILLE     SUNNY     60  47  61 NE9       30.25F
BELLE CHASSE   SUNNY     65  42  43 E8        30.24F
BOGALUSA*        N/A     68  31  24 CALM      30.24F
GALLIANO*      NOT AVBL
NEW ROADS*     NOT AVBL
GONZALES*      NOT AVBL
HAMMOND*       NOT AVBL
HOUMA*         SUNNY     68  45  42 NE9       30.23F
PORT FOURCHON* CLEAR     64  50  59 E13       30.27F

$$

MSZ070-080>082-282100-
SOUTHERN MISSISSIPPI

CITY           SKY/WX    TMP DP  RH WIND       PRES   REMARKS
MCCOMB         SUNNY     68  37  32 CALM      30.22F
GULFPORT       SUNNY     59  40  49 SE8       30.23F
BILOXI         NOT AVBL
PASCAGOULA     SUNNY     67  25  20 N6        30.23F
STENNIS ARPT*  SUNNY     63  36  36 S8        30.25F

$$

COASTAL OBSERVATIONS
LAKE AND NEARSHORE STATIONS

STATION/POSITION TIME  TEMP    WIND        PRES    WAVE
                       AIR SEA DIR/SP/G            HT/PER
                 (UTC) (F)     (DEG/KT/KT) (MB)    (FT/S)
PASCAGOULA       1918   61     150/  4/  6 1023.5
WAVELAND YACHT   1918   52     170/  9/ 11 1023.8
GRAND ISLE       1918   62 60   80/  8/ 12 1024.9
SOUTHWEST PASS   1918   67 47   70/ 11/ 12 1024.4
NEW CANAL        1918   60 54   90/  4/  6 1025.0
SHELL BEACH      1918   58 55   60/  9/ 10 1024.6

OFFSHORE STATIONS

STATION/POSITION TIME  TEMP    WIND        PRES    WAVE
                       AIR SEA DIR/SP/G            HT/PER
                 (UTC) (F)     (DEG/KT/KT) (MB)    (FT/S)
64 S DAUPHIN ISL 1851   59 68   60/ 10/ 12 1024.2    3/ 5

$$




USA.gov is the U.S. government's official web portal to all federal, state and local government web resources and services.